Time,TemperatureF,DewpointF,PressureIn,WindDirection,WindDirectionDegrees,WindSpeedMPH,WindSpeedGustMPH,Humidity,HourlyPrecipIn,Conditions,Clouds,dailyrainin,SoftwareType,DateUTC
2013-05-08 00:04:00,64.8,55.6,30.02,NNE,22,2.0,2.0,72,0.00,,,0.00,Wunderground v.1.15,2013-05-07 22:04:00,
2013-05-08 00:10:00,64.9,56.0,30.02,NNE,22,1.0,2.0,73,0.00,,,0.00,Wunderground v.1.15,2013-05-07 22:10:00,
2013-05-08 00:20:00,64.7,55.5,30.02,NNE,22,1.0,3.0,72,0.00,,,0.00,Wunderground v.1.15,2013-05-07 22:20:00,
2013-05-08 00:25:00,64.7,55.1,30.02,NNE,22,2.0,2.0,71,0.00,,,0.00,Wunderground v.1.15,2013-05-07 22:25:00,
2013-05-08 00:30:00,64.7,55.1,30.02,NNE,22,1.0,2.0,71,0.00,,,0.00,Wunderground v.1.15,2013-05-07 22:30:00,
2013-05-08 00:40:00,64.9,54.9,30.01,NNE,22,1.0,1.0,70,0.00,,,0.00,Wunderground v.1.15,2013-05-07 22:40:00,
2013-05-08 00:45:00,65.1,55.1,30.01,NNE,22,0.0,0.0,70,0.00,,,0.00,Wunderground v.1.15,2013-05-07 22:45:00,
2013-05-08 00:50:00,65.2,54.8,30.01,NNE,22,0.0,0.0,69,0.00,,,0.00,Wunderground v.1.15,2013-05-07 22:50:00,
2013-05-08 01:00:00,65.4,54.6,30.01,NNE,22,1.0,1.0,68,0.00,,,0.00,Wunderground v.1.15,2013-05-07 23:00:00,
2013-05-08 01:10:00,65.6,54.3,30.01,NNE,22,1.0,1.0,67,0.00,,,0.00,Wunderground v.1.15,2013-05-07 23:10:00,
2013-05-08 01:15:00,65.5,54.2,30.01,NNE,22,1.0,1.0,67,0.00,,,0.00,Wunderground v.1.15,2013-05-07 23:15:00,
2013-05-08 01:24:00,65.3,54.5,30.01,NNE,22,0.0,0.0,68,0.00,,,0.00,Wunderground v.1.15,2013-05-07 23:24:00,
2013-05-08 01:34:00,65.0,54.6,30.01,NNE,22,0.0,0.0,69,0.00,,,0.00,Wunderground v.1.15,2013-05-07 23:34:00,
2013-05-08 01:40:00,64.9,54.5,30.01,NNE,22,0.0,0.0,69,0.00,,,0.00,Wunderground v.1.15,2013-05-07 23:40:00,
2013-05-08 01:45:00,64.6,54.6,30.01,NNE,22,0.0,3.0,70,0.00,,,0.00,Wunderground v.1.15,2013-05-07 23:45:00,
2013-05-08 01:55:00,64.1,54.5,30.00,NNE,22,0.0,0.0,71,0.00,,,0.00,Wunderground v.1.15,2013-05-07 23:55:00,
2013-05-08 02:00:00,64.0,54.8,30.00,NNE,22,0.0,0.0,72,0.00,,,0.00,Wunderground v.1.15,2013-05-08 00:00:00,
2013-05-08 02:10:00,64.1,54.9,30.00,NNE,22,0.0,0.0,72,0.00,,,0.00,Wunderground v.1.15,2013-05-08 00:10:00,
2013-05-08 02:15:00,64.1,54.9,30.00,NNE,22,0.0,0.0,72,0.00,,,0.00,Wunderground v.1.15,2013-05-08 00:15:00,
2013-05-08 02:24:00,64.3,55.5,30.00,NNE,22,0.0,0.0,73,0.00,,,0.00,Wunderground v.1.15,2013-05-08 00:24:00,
2013-05-08 02:34:00,64.4,55.6,29.99,NNE,22,0.0,0.0,73,0.00,,,0.00,Wunderground v.1.15,2013-05-08 00:34:00,
2013-05-08 02:45:00,64.2,55.0,29.99,NNE,22,1.0,1.0,72,0.00,,,0.00,Wunderground v.1.15,2013-05-08 00:45:00,
2013-05-08 02:54:00,63.8,55.0,29.98,NNE,22,2.0,2.0,73,0.00,,,0.00,Wunderground v.1.15,2013-05-08 00:54:00,
2013-05-08 03:04:00,63.9,55.4,29.98,NNE,22,1.0,1.0,74,0.00,,,0.00,Wunderground v.1.15,2013-05-08 01:04:00,
2013-05-08 03:10:00,63.9,55.4,29.98,NNE,22,0.0,1.0,74,0.00,,,0.00,Wunderground v.1.15,2013-05-08 01:10:00,
2013-05-08 03:15:00,63.8,55.4,29.98,NNE,22,0.0,1.0,74,0.00,,,0.00,Wunderground v.1.15,2013-05-08 01:15:00,
2013-05-08 03:24:00,63.6,55.5,29.98,NNE,22,1.0,1.0,75,0.00,,,0.00,Wunderground v.1.15,2013-05-08 01:24:00,
2013-05-08 03:30:00,63.5,55.4,29.98,NNE,22,1.0,1.0,75,0.00,,,0.00,Wunderground v.1.15,2013-05-08 01:30:00,
2013-05-08 03:40:00,63.3,55.2,29.98,NNE,22,1.0,2.0,75,0.00,,,0.00,Wunderground v.1.15,2013-05-08 01:40:00,
2013-05-08 03:45:00,63.3,55.6,29.98,NNE,22,1.0,1.0,76,0.00,,,0.00,Wunderground v.1.15,2013-05-08 01:45:00,
2013-05-08 03:54:00,63.2,55.5,29.97,NNE,22,1.0,1.0,76,0.00,,,0.00,Wunderground v.1.15,2013-05-08 01:54:00,
2013-05-08 04:00:00,63.1,55.4,29.97,NNE,22,1.0,2.0,76,0.00,,,0.00,Wunderground v.1.15,2013-05-08 02:00:00,
2013-05-08 04:09:00,63.0,54.9,29.97,NNE,22,0.0,2.0,75,0.00,,,0.00,Wunderground v.1.15,2013-05-08 02:09:00,
2013-05-08 04:14:00,63.0,54.9,29.97,NNE,22,1.0,3.0,75,0.00,,,0.00,Wunderground v.1.15,2013-05-08 02:14:00,
2013-05-08 04:19:00,63.0,54.6,29.97,NNE,22,2.0,2.0,74,0.00,,,0.00,Wunderground v.1.15,2013-05-08 02:19:00,
2013-05-08 04:34:00,62.8,54.8,29.96,NNE,22,2.0,2.0,75,0.00,,,0.00,Wunderground v.1.15,2013-05-08 02:34:00,
2013-05-08 04:39:00,62.9,54.9,29.96,NNE,22,2.0,2.0,75,0.00,,,0.00,Wunderground v.1.15,2013-05-08 02:39:00,
2013-05-08 04:44:00,62.9,54.9,29.96,NNE,22,1.0,1.0,75,0.00,,,0.00,Wunderground v.1.15,2013-05-08 02:44:00,
2013-05-08 04:49:00,63.0,54.9,29.95,NNE,22,0.0,1.0,75,0.00,,,0.00,Wunderground v.1.15,2013-05-08 02:49:00,
2013-05-08 04:59:00,62.9,54.9,29.95,NNE,22,1.0,3.0,75,0.00,,,0.00,Wunderground v.1.15,2013-05-08 02:59:00,
2013-05-08 05:09:00,62.7,54.7,29.95,NNE,22,2.0,4.0,75,0.00,,,0.00,Wunderground v.1.15,2013-05-08 03:09:00,
2013-05-08 05:14:00,62.7,54.3,29.95,NNE,22,3.0,4.0,74,0.00,,,0.00,Wunderground v.1.15,2013-05-08 03:14:00,
2013-05-08 05:19:00,62.7,54.3,29.95,NNE,22,2.0,2.0,74,0.00,,,0.00,Wunderground v.1.15,2013-05-08 03:19:00,
2013-05-08 05:34:00,62.8,54.0,29.95,NNE,22,0.0,3.0,73,0.00,,,0.00,Wunderground v.1.15,2013-05-08 03:34:00,
2013-05-08 05:39:00,63.1,53.9,29.95,NNE,22,1.0,3.0,72,0.00,,,0.00,Wunderground v.1.15,2013-05-08 03:39:00,
2013-05-08 05:44:00,63.2,53.6,29.95,NNE,22,2.0,2.0,71,0.00,,,0.00,Wunderground v.1.15,2013-05-08 03:44:00,
2013-05-08 05:54:00,63.3,54.5,29.95,NNE,22,0.0,0.0,73,0.00,,,0.00,Wunderground v.1.15,2013-05-08 03:54:00,
2013-05-08 06:04:00,63.2,54.4,29.95,NNE,22,0.0,0.0,73,0.00,,,0.00,Wunderground v.1.15,2013-05-08 04:04:00,
2013-05-08 06:09:00,63.1,53.9,29.94,NNE,22,0.0,0.0,72,0.00,,,0.00,Wunderground v.1.15,2013-05-08 04:09:00,
2013-05-08 06:15:00,63.1,54.3,29.95,NNE,22,0.0,0.0,73,0.00,,,0.00,Wunderground v.1.15,2013-05-08 04:15:00,
2013-05-08 06:20:00,63.0,53.8,29.95,NNE,22,0.0,0.0,72,0.00,,,0.00,Wunderground v.1.15,2013-05-08 04:20:00,
2013-05-08 06:25:00,62.9,53.7,29.95,NNE,22,0.0,0.0,72,0.00,,,0.00,Wunderground v.1.15,2013-05-08 04:25:00,
2013-05-08 06:35:00,62.2,53.8,29.95,NNE,22,1.0,2.0,74,0.00,,,0.00,Wunderground v.1.15,2013-05-08 04:35:00,
2013-05-08 06:40:00,61.7,53.7,29.95,NNE,22,2.0,2.0,75,0.00,,,0.00,Wunderground v.1.15,2013-05-08 04:40:00,
2013-05-08 06:45:00,61.5,53.5,29.95,NNE,22,2.0,2.0,75,0.00,,,0.00,Wunderground v.1.15,2013-05-08 04:45:00,
2013-05-08 06:55:00,61.2,53.6,29.95,NNE,22,2.0,2.0,76,0.00,,,0.00,Wunderground v.1.15,2013-05-08 04:55:00,
2013-05-08 07:00:00,61.0,53.7,29.95,NNE,22,3.0,3.0,77,0.00,,,0.00,Wunderground v.1.15,2013-05-08 05:00:00,
2013-05-08 07:10:00,60.9,53.6,29.96,NNE,22,2.0,3.0,77,0.00,,,0.00,Wunderground v.1.15,2013-05-08 05:10:00,
2013-05-08 07:20:00,60.7,53.8,29.96,NNE,23,2.0,4.0,78,0.00,,,0.00,Wunderground v.1.15,2013-05-08 05:20:00,
2013-05-08 07:35:00,61.0,54.1,29.96,NNE,23,2.0,3.0,78,0.00,,,0.00,Wunderground v.1.15,2013-05-08 05:35:00,
2013-05-08 07:40:00,61.3,54.4,29.97,NNE,23,2.0,3.0,78,0.00,,,0.00,Wunderground v.1.15,2013-05-08 05:40:00,
2013-05-08 07:50:00,62.0,55.1,29.97,NNE,23,1.0,1.0,78,0.00,,,0.00,Wunderground v.1.15,2013-05-08 05:50:00,
2013-05-08 08:05:00,63.2,55.9,29.97,NNE,23,0.0,0.0,77,0.00,,,0.00,Wunderground v.1.15,2013-05-08 06:05:00,
2013-05-08 08:10:00,63.9,56.5,29.97,NNE,23,0.0,0.0,77,0.00,,,0.00,Wunderground v.1.15,2013-05-08 06:10:00,
2013-05-08 08:15:00,64.4,56.7,29.97,NNE,23,0.0,1.0,76,0.00,,,0.00,Wunderground v.1.15,2013-05-08 06:15:00,
2013-05-08 08:20:00,64.6,56.5,29.97,NNE,23,1.0,1.0,75,0.00,,,0.00,Wunderground v.1.15,2013-05-08 06:20:00,
2013-05-08 08:35:00,66.0,57.1,29.97,NNE,23,0.0,0.0,73,0.00,,,0.00,Wunderground v.1.15,2013-05-08 06:35:00,
2013-05-08 08:45:00,67.9,56.5,29.97,NNE,23,0.0,0.0,67,0.00,,,0.00,Wunderground v.1.15,2013-05-08 06:45:00,
2013-05-08 08:50:00,68.4,56.2,29.97,NNE,23,0.0,0.0,65,0.00,,,0.00,Wunderground v.1.15,2013-05-08 06:50:00,
2013-05-08 09:00:00,69.2,56.9,29.97,NNE,23,0.0,0.0,65,0.00,,,0.00,Wunderground v.1.15,2013-05-08 07:00:00,
2013-05-08 09:10:00,69.1,56.4,29.97,NNE,23,0.0,0.0,64,0.00,,,0.00,Wunderground v.1.15,2013-05-08 07:10:00,
2013-05-08 09:20:00,68.7,56.9,29.97,NNE,23,0.0,0.0,66,0.00,,,0.00,Wunderground v.1.15,2013-05-08 07:20:00,
2013-05-08 09:30:00,68.4,57.0,29.98,NNE,23,0.0,0.0,67,0.00,,,0.00,Wunderground v.1.15,2013-05-08 07:30:00,
2013-05-08 09:40:00,67.9,57.4,29.97,NNE,23,2.0,2.0,69,0.00,,,0.00,Wunderground v.1.15,2013-05-08 07:40:00,
2013-05-08 09:45:00,67.8,57.7,29.97,NNE,23,2.0,3.0,70,0.00,,,0.00,Wunderground v.1.15,2013-05-08 07:45:00,
2013-05-08 09:50:00,67.6,57.1,29.98,NNE,23,2.0,2.0,69,0.00,,,0.00,Wunderground v.1.15,2013-05-08 07:50:00,
2013-05-08 10:05:00,68.1,58.3,29.97,NNE,13,1.0,1.0,71,0.00,,,0.00,Wunderground v.1.15,2013-05-08 08:05:00,
2013-05-08 10:10:00,68.2,58.8,29.98,NNE,21,2.0,3.0,72,0.00,,,0.00,Wunderground v.1.15,2013-05-08 08:10:00,
2013-05-08 10:20:00,68.1,59.1,29.98,South,190,2.0,3.0,73,0.00,,,0.00,Wunderground v.1.15,2013-05-08 08:20:00,
2013-05-08 10:25:00,68.4,59.4,29.98,South,180,2.0,2.0,73,0.00,,,0.00,Wunderground v.1.15,2013-05-08 08:25:00,
2013-05-08 10:30:00,68.5,59.5,29.98,South,183,2.0,3.0,73,0.00,,,0.00,Wunderground v.1.15,2013-05-08 08:30:00,
2013-05-08 10:40:00,68.5,59.9,29.98,South,189,2.0,5.0,74,0.00,,,0.00,Wunderground v.1.15,2013-05-08 08:40:00,
2013-05-08 10:45:00,68.5,60.3,29.98,SSW,197,2.0,3.0,75,0.00,,,0.00,Wunderground v.1.15,2013-05-08 08:45:00,
2013-05-08 10:55:00,68.1,60.2,29.98,SSW,198,2.0,2.0,76,0.00,,,0.00,Wunderground v.1.15,2013-05-08 08:55:00,
2013-05-08 11:04:00,67.5,60.0,29.98,SSW,202,3.0,3.0,77,0.00,,,0.00,Wunderground v.1.15,2013-05-08 09:04:00,
2013-05-08 11:10:00,67.2,60.1,29.97,SSW,198,4.0,5.0,78,0.00,,,0.00,Wunderground v.1.15,2013-05-08 09:10:00,
2013-05-08 11:20:00,67.4,60.7,29.97,SSW,202,2.0,5.0,79,0.00,,,0.00,Wunderground v.1.15,2013-05-08 09:20:00,
2013-05-08 11:34:00,67.1,60.7,29.97,SSW,202,4.0,4.0,80,0.00,,,0.00,Wunderground v.1.15,2013-05-08 09:34:00,
2013-05-08 11:40:00,67.0,61.0,29.98,SSW,201,3.0,4.0,81,0.00,,,0.00,Wunderground v.1.15,2013-05-08 09:40:00,
2013-05-08 11:49:00,67.4,61.7,29.97,SSW,200,1.0,2.0,82,0.00,,,0.00,Wunderground v.1.15,2013-05-08 09:49:00,
2013-05-08 11:55:00,67.5,61.5,29.97,SSW,200,2.0,3.0,81,0.00,,,0.00,Wunderground v.1.15,2013-05-08 09:55:00,
2013-05-08 12:04:00,67.6,61.6,29.97,SSW,205,2.0,2.0,81,0.00,,,0.00,Wunderground v.1.15,2013-05-08 10:04:00,
2013-05-08 12:09:00,67.6,61.6,29.97,SSW,206,3.0,3.0,81,0.00,,,0.00,Wunderground v.1.15,2013-05-08 10:09:00,
2013-05-08 12:15:00,68.2,62.5,29.98,SSW,207,2.0,4.0,82,0.00,,,0.00,Wunderground v.1.15,2013-05-08 10:15:00,
2013-05-08 12:24:00,68.5,62.8,29.97,South,188,3.0,3.0,82,0.00,,,0.00,Wunderground v.1.15,2013-05-08 10:24:00,
2013-05-08 12:30:00,69.0,63.3,29.97,SSW,207,2.0,4.0,82,0.00,,,0.00,Wunderground v.1.15,2013-05-08 10:30:00,
2013-05-08 12:40:00,69.4,63.3,29.97,SSE,161,2.0,3.0,81,0.00,,,0.00,Wunderground v.1.15,2013-05-08 10:40:00,
2013-05-08 12:45:00,69.7,63.6,29.97,South,171,3.0,3.0,81,0.00,,,0.00,Wunderground v.1.15,2013-05-08 10:45:00,
2013-05-08 12:50:00,70.0,63.9,29.97,South,191,3.0,6.0,81,0.00,,,0.00,Wunderground v.1.15,2013-05-08 10:50:00,
2013-05-08 12:55:00,70.2,63.7,29.97,SSW,195,3.0,3.0,80,0.00,,,0.00,Wunderground v.1.15,2013-05-08 10:55:00,
2013-05-08 13:04:00,70.4,64.3,29.97,South,186,3.0,3.0,81,0.00,,,0.00,Wunderground v.1.15,2013-05-08 11:04:00,
2013-05-08 13:10:00,70.5,64.0,29.97,SSE,165,3.0,4.0,80,0.00,,,0.00,Wunderground v.1.15,2013-05-08 11:10:00,
2013-05-08 13:15:00,70.3,63.5,29.97,South,174,3.0,4.0,79,0.00,,,0.00,Wunderground v.1.15,2013-05-08 11:15:00,
2013-05-08 13:24:00,70.5,64.0,29.97,South,190,3.0,5.0,80,0.00,,,0.00,Wunderground v.1.15,2013-05-08 11:24:00,
2013-05-08 13:30:00,70.2,63.7,29.97,SE,142,4.0,5.0,80,0.00,,,0.00,Wunderground v.1.15,2013-05-08 11:30:00,
2013-05-08 13:39:00,70.2,64.1,29.97,SSE,156,2.0,3.0,81,0.00,,,0.00,Wunderground v.1.15,2013-05-08 11:39:00,
2013-05-08 13:44:00,70.2,64.1,29.97,South,182,2.0,3.0,81,0.00,,,0.00,Wunderground v.1.15,2013-05-08 11:44:00,
2013-05-08 13:54:00,70.0,63.9,29.96,South,178,3.0,4.0,81,0.00,,,0.00,Wunderground v.1.15,2013-05-08 11:54:00,
2013-05-08 14:00:00,69.9,63.8,29.97,SSW,205,2.0,3.0,81,0.00,,,0.00,Wunderground v.1.15,2013-05-08 12:00:00,
2013-05-08 14:09:00,69.3,63.9,29.97,South,182,3.0,4.0,83,0.00,,,0.00,Wunderground v.1.15,2013-05-08 12:09:00,
2013-05-08 14:19:00,69.7,64.0,29.96,SSE,163,3.0,3.0,82,0.00,,,0.00,Wunderground v.1.15,2013-05-08 12:19:00,
2013-05-08 14:30:00,70.2,63.7,29.96,SE,142,4.0,6.0,80,0.00,,,0.00,Wunderground v.1.15,2013-05-08 12:30:00,
2013-05-08 14:39:00,71.0,64.2,29.96,South,189,3.0,3.0,79,0.00,,,0.00,Wunderground v.1.15,2013-05-08 12:39:00,
2013-05-08 14:44:00,70.9,63.7,29.96,South,186,4.0,4.0,78,0.00,,,0.00,Wunderground v.1.15,2013-05-08 12:44:00,
2013-05-08 14:54:00,70.6,63.8,29.96,SSW,192,4.0,4.0,79,0.00,,,0.00,Wunderground v.1.15,2013-05-08 12:54:00,
2013-05-08 15:04:00,70.9,64.4,29.96,South,184,4.0,4.0,80,0.00,,,0.00,Wunderground v.1.15,2013-05-08 13:04:00,
2013-05-08 15:09:00,70.9,64.1,29.95,South,175,5.0,7.0,79,0.00,,,0.00,Wunderground v.1.15,2013-05-08 13:09:00,
2013-05-08 15:14:00,70.8,64.0,29.95,SSE,167,5.0,7.0,79,0.00,,,0.00,Wunderground v.1.15,2013-05-08 13:14:00,
2013-05-08 15:24:00,70.6,64.5,29.96,SSE,161,4.0,6.0,81,0.00,,,0.00,Wunderground v.1.15,2013-05-08 13:24:00,
2013-05-08 15:29:00,70.7,64.2,29.95,SSE,167,3.0,6.0,80,0.00,,,0.00,Wunderground v.1.15,2013-05-08 13:29:00,
2013-05-08 15:39:00,70.5,64.4,29.95,SE,141,4.0,6.0,81,0.00,,,0.00,Wunderground v.1.15,2013-05-08 13:39:00,
2013-05-08 15:44:00,70.7,64.2,29.95,South,180,4.0,4.0,80,0.00,,,0.00,Wunderground v.1.15,2013-05-08 13:44:00,
2013-05-08 15:49:00,71.4,64.5,29.95,SSE,155,4.0,4.0,79,0.00,,,0.00,Wunderground v.1.15,2013-05-08 13:49:00,
2013-05-08 15:59:00,71.6,63.6,29.94,South,180,4.0,6.0,76,0.00,,,0.00,Wunderground v.1.15,2013-05-08 13:59:00,
2013-05-08 16:09:00,71.4,64.2,29.94,SSE,155,5.0,12.0,78,0.00,,,0.00,Wunderground v.1.15,2013-05-08 14:09:00,
2013-05-08 16:15:00,71.4,63.8,29.94,SE,140,4.0,4.0,77,0.00,,,0.00,Wunderground v.1.15,2013-05-08 14:15:00,
2013-05-08 16:25:00,71.3,64.4,29.94,SSW,202,4.0,4.0,79,0.00,,,0.00,Wunderground v.1.15,2013-05-08 14:25:00,
2013-05-08 16:35:00,71.1,64.3,29.94,SE,137,5.0,11.0,79,0.00,,,0.00,Wunderground v.1.15,2013-05-08 14:35:00,
2013-05-08 16:40:00,71.0,64.5,29.94,SE,139,5.0,11.0,80,0.00,,,0.00,Wunderground v.1.15,2013-05-08 14:40:00,
2013-05-08 16:45:00,70.9,64.4,29.94,SSE,154,5.0,5.0,80,0.00,,,0.00,Wunderground v.1.15,2013-05-08 14:45:00,
2013-05-08 16:55:00,70.8,64.7,29.94,SSE,150,3.0,4.0,81,0.00,,,0.00,Wunderground v.1.15,2013-05-08 14:55:00,
2013-05-08 17:05:00,70.6,64.1,29.93,SSE,155,4.0,8.0,80,0.00,,,0.00,Wunderground v.1.15,2013-05-08 15:05:00,
2013-05-08 17:10:00,70.5,64.0,29.93,South,173,4.0,8.0,80,0.00,,,0.00,Wunderground v.1.15,2013-05-08 15:10:00,
2013-05-08 17:15:00,70.4,64.3,29.93,SSE,162,5.0,7.0,81,0.00,,,0.00,Wunderground v.1.15,2013-05-08 15:15:00,
2013-05-08 17:20:00,70.2,64.1,29.93,SSE,154,5.0,7.0,81,0.00,,,0.00,Wunderground v.1.15,2013-05-08 15:20:00,
2013-05-08 17:25:00,70.4,64.6,29.94,ESE,111,4.0,4.0,82,0.00,,,0.00,Wunderground v.1.15,2013-05-08 15:25:00,
2013-05-08 17:30:00,70.5,64.4,29.94,SE,141,2.0,4.0,81,0.00,,,0.00,Wunderground v.1.15,2013-05-08 15:30:00,
2013-05-08 17:40:00,70.7,63.9,29.94,South,169,1.0,4.0,79,0.00,,,0.00,Wunderground v.1.15,2013-05-08 15:40:00,
2013-05-08 17:45:00,70.8,63.6,29.94,SSE,152,2.0,2.0,78,0.00,,,0.00,Wunderground v.1.15,2013-05-08 15:45:00,
2013-05-08 17:55:00,71.0,63.1,29.94,SSE,148,2.0,2.0,76,0.00,,,0.00,Wunderground v.1.15,2013-05-08 15:55:00,
2013-05-08 18:05:00,71.0,63.1,29.94,SE,138,2.0,2.0,76,0.00,,,0.00,Wunderground v.1.15,2013-05-08 16:05:00,
2013-05-08 18:10:00,71.1,62.8,29.94,SSE,157,2.0,2.0,75,0.00,,,0.00,Wunderground v.1.15,2013-05-08 16:10:00,
2013-05-08 18:15:00,71.0,62.7,29.94,SE,145,2.0,2.0,75,0.00,,,0.00,Wunderground v.1.15,2013-05-08 16:15:00,
2013-05-08 18:25:00,70.8,62.9,29.94,SE,134,2.0,2.0,76,0.00,,,0.00,Wunderground v.1.15,2013-05-08 16:25:00,
2013-05-08 18:35:00,70.4,62.5,29.94,SSE,153,2.0,2.0,76,0.00,,,0.00,Wunderground v.1.15,2013-05-08 16:35:00,
2013-05-08 18:40:00,70.3,62.7,29.94,SSE,154,2.0,2.0,77,0.00,,,0.00,Wunderground v.1.15,2013-05-08 16:40:00,
2013-05-08 18:50:00,70.2,62.3,29.94,SE,135,1.0,1.0,76,0.00,,,0.00,Wunderground v.1.15,2013-05-08 16:50:00,
2013-05-08 18:55:00,70.2,62.3,29.94,SE,137,1.0,1.0,76,0.00,,,0.00,Wunderground v.1.15,2013-05-08 16:55:00,
2013-05-08 19:00:00,70.1,62.2,29.94,SE,142,2.0,2.0,76,0.00,,,0.00,Wunderground v.1.15,2013-05-08 17:00:00,
2013-05-08 19:10:00,70.0,62.1,29.94,SE,142,1.0,2.0,76,0.00,,,0.00,Wunderground v.1.15,2013-05-08 17:10:00,
2013-05-08 19:15:00,70.0,62.1,29.94,SE,142,1.0,2.0,76,0.00,,,0.00,Wunderground v.1.15,2013-05-08 17:15:00,
2013-05-08 19:20:00,70.0,62.1,29.94,SE,142,1.0,2.0,76,0.00,,,0.00,Wunderground v.1.15,2013-05-08 17:20:00,
2013-05-08 19:30:00,70.1,62.2,29.94,SE,142,0.0,1.0,76,0.00,,,0.00,Wunderground v.1.15,2013-05-08 17:30:00,
2013-05-08 19:40:00,70.1,62.2,29.94,SE,142,0.0,0.0,76,0.00,,,0.00,Wunderground v.1.15,2013-05-08 17:40:00,
2013-05-08 19:50:00,70.0,62.5,29.95,SE,142,0.0,0.0,77,0.00,,,0.00,Wunderground v.1.15,2013-05-08 17:50:00,
2013-05-08 20:05:00,70.1,62.2,29.95,SE,142,0.0,0.0,76,0.00,,,0.00,Wunderground v.1.15,2013-05-08 18:05:00,
2013-05-08 20:10:00,70.2,62.3,29.95,SE,142,0.0,0.0,76,0.00,,,0.00,Wunderground v.1.15,2013-05-08 18:10:00,
2013-05-08 20:15:00,70.4,62.1,29.95,SE,142,0.0,0.0,75,0.00,,,0.00,Wunderground v.1.15,2013-05-08 18:15:00,
2013-05-08 20:25:00,70.7,62.0,29.95,SE,142,0.0,0.0,74,0.00,,,0.00,Wunderground v.1.15,2013-05-08 18:25:00,
2013-05-08 20:30:00,70.9,62.6,29.95,SE,142,0.0,0.0,75,0.00,,,0.00,Wunderground v.1.15,2013-05-08 18:30:00,
2013-05-08 20:40:00,70.8,62.5,29.95,SE,142,0.0,0.0,75,0.00,,,0.00,Wunderground v.1.15,2013-05-08 18:40:00,
2013-05-08 20:45:00,70.8,62.5,29.95,SE,142,0.0,0.0,75,0.00,,,0.00,Wunderground v.1.15,2013-05-08 18:45:00,
2013-05-08 20:50:00,70.8,62.1,29.95,SE,142,0.0,2.0,74,0.00,,,0.00,Wunderground v.1.15,2013-05-08 18:50:00,
2013-05-08 21:00:00,71.0,61.9,29.96,ESE,109,1.0,1.0,73,0.00,,,0.00,Wunderground v.1.15,2013-05-08 19:00:00,
2013-05-08 21:10:00,71.2,62.1,29.96,ESE,109,0.0,0.0,73,0.00,,,0.00,Wunderground v.1.15,2013-05-08 19:10:00,
2013-05-08 21:15:00,71.2,62.1,29.96,ESE,109,0.0,0.0,73,0.00,,,0.00,Wunderground v.1.15,2013-05-08 19:15:00,
2013-05-08 21:20:00,71.2,61.7,29.96,ESE,109,0.0,1.0,72,0.00,,,0.00,Wunderground v.1.15,2013-05-08 19:20:00,
2013-05-08 21:35:00,71.3,61.8,29.97,ESE,109,0.0,0.0,72,0.00,,,0.00,Wunderground v.1.15,2013-05-08 19:35:00,
2013-05-08 21:40:00,71.3,61.8,29.97,ESE,109,1.0,1.0,72,0.00,,,0.00,Wunderground v.1.15,2013-05-08 19:40:00,
2013-05-08 21:45:00,71.4,61.9,29.97,ESE,109,1.0,2.0,72,0.00,,,0.00,Wunderground v.1.15,2013-05-08 19:45:00,
2013-05-08 21:54:00,71.5,62.4,29.97,ESE,109,1.0,2.0,73,0.00,,,0.00,Wunderground v.1.15,2013-05-08 19:54:00,
2013-05-08 22:05:00,71.5,62.0,29.97,ESE,109,2.0,2.0,72,0.00,,,0.00,Wunderground v.1.15,2013-05-08 20:05:00,
2013-05-08 22:10:00,71.6,61.7,29.97,ESE,109,1.0,2.0,71,0.00,,,0.00,Wunderground v.1.15,2013-05-08 20:10:00,
2013-05-08 22:20:00,71.8,61.1,29.97,ESE,108,1.0,1.0,69,0.00,,,0.00,Wunderground v.1.15,2013-05-08 20:20:00,
2013-05-08 22:35:00,71.8,59.4,29.98,ESE,106,1.0,1.0,65,0.00,,,0.00,Wunderground v.1.15,2013-05-08 20:35:00,
2013-05-08 22:40:00,71.9,58.6,29.98,ESE,106,1.0,1.0,63,0.00,,,0.00,Wunderground v.1.15,2013-05-08 20:40:00,
2013-05-08 22:45:00,72.0,58.7,29.98,East,100,1.0,1.0,63,0.00,,,0.00,Wunderground v.1.15,2013-05-08 20:45:00,
2013-05-08 22:50:00,72.0,59.2,29.98,East,100,1.0,1.0,64,0.00,,,0.00,Wunderground v.1.15,2013-05-08 20:50:00,
2013-05-08 23:04:00,71.5,58.2,29.98,ENE,65,3.0,3.0,63,0.00,,,0.00,Wunderground v.1.15,2013-05-08 21:04:00,
2013-05-08 23:10:00,71.5,58.7,29.98,ENE,65,1.0,3.0,64,0.00,,,0.00,Wunderground v.1.15,2013-05-08 21:10:00,
2013-05-08 23:20:00,71.1,58.7,29.98,ENE,65,1.0,1.0,65,0.00,,,0.00,Wunderground v.1.15,2013-05-08 21:20:00,
2013-05-08 23:30:00,70.8,58.4,29.99,ENE,65,0.0,0.0,65,0.00,,,0.00,Wunderground v.1.15,2013-05-08 21:30:00,
2013-05-08 23:40:00,70.6,58.7,29.98,ENE,65,0.0,0.0,66,0.00,,,0.00,Wunderground v.1.15,2013-05-08 21:40:00,